Date String (YYYY-MM-DD hh:mm:ss) UTC,Instrument flags,absolute air pressure of the measurement (hPa),sample flow rate (lpm),inlet stack bypass flow (lpm),air temperature of the measurement (°C),ambient temperature measured by the external sensor (°C),aerosol sample conditioner tube jacket temperature (°C),OPC LED temperature (°C),internal box temperature (°C),relative humidity of the measurement (%),span deviation,mass concentration of particles derived from Lorenz-Mie calculation of OPC scattering (μg/m³),mass concentration of particles derived from Lorenz-Mie calculation of OPC scattering (μg/m³),mass concentration of particles derived from Lorenz-Mie calculation of OPC scattering (μg/m³)
DateTimeUTC,F1_M11,P_M11,Q1_M11,Q2_M11,T1_M11,T2_M11,T3_M11,T4_M11,T5_M11,U1_M11,ZSPAN_M11,X0_M11,X2_M11,X1_M11
2024-04-07 17:00:00,SystemResetWarning,0819.1,5.00,000.00,019.0,018.6,000.0,027.3,020.7,009.3,0000.0,0003.27,0001.09,0000.62
2024-04-07 17:01:00,SystemResetWarning,0819.0,5.00,000.00,018.9,018.5,000.0,027.3,020.6,009.3,0000.0,0003.75,0001.02,0000.62
2024-04-07 17:02:00,SystemResetWarning,0819.0,5.00,000.00,018.9,018.3,000.0,027.3,020.5,009.2,0000.0,0003.74,0001.02,0000.63
2024-04-07 17:03:00,SystemResetWarning,0819.0,4.99,000.00,018.8,018.2,000.0,027.2,020.4,009.4,0000.0,0004.11,0001.02,0000.63
2024-04-07 17:04:00,SystemResetWarning,0819.1,5.00,000.00,018.8,018.1,000.0,027.2,020.3,009.0,0000.0,0005.04,0001.08,0000.63
2024-04-07 17:05:00,SystemResetWarning,0819.0,5.01,000.00,018.7,018.0,000.0,027.2,020.3,009.3,0000.0,0005.16,0001.01,0000.62
2024-04-07 17:06:00,SystemResetWarning,0819.1,5.01,000.00,018.7,017.9,000.0,027.2,020.2,009.4,0000.0,0004.96,0000.99,0000.62
2024-04-07 17:07:00,SystemResetWarning,0819.1,5.00,000.00,018.7,017.8,000.0,027.2,020.2,009.4,0000.0,0005.04,0001.05,0000.63
2024-04-07 17:08:00,SystemResetWarning,0819.2,5.01,000.00,018.6,017.7,000.0,027.1,020.1,009.5,0000.0,0005.56,0001.10,0000.64
2024-04-07 17:09:00,SystemResetWarning,0819.3,5.00,000.00,018.6,017.7,000.0,027.1,020.0,009.4,0000.0,0006.91,0001.11,0000.64
2024-04-07 17:10:00,SystemResetWarning,0819.4,5.00,000.00,018.5,017.6,000.0,027.1,020.0,009.3,0000.0,0007.88,0001.10,0000.64
2024-04-07 17:11:00,SystemResetWarning,0819.4,5.00,000.00,018.5,017.6,000.0,027.1,020.0,009.4,0000.0,0008.16,0001.10,0000.65
2024-04-07 17:12:00,SystemResetWarning,0819.3,5.00,000.00,018.5,017.6,000.0,027.1,020.0,009.7,0000.0,0007.66,0001.14,0000.65
2024-04-07 17:13:00,SystemResetWarning,0819.0,5.00,000.00,018.4,017.5,000.0,027.1,020.0,009.5,0000.0,0007.70,0001.17,0000.65
2024-04-07 17:14:00,SystemResetWarning,0819.3,5.00,000.00,018.4,017.5,000.0,027.1,020.0,009.4,0000.0,0007.66,0001.21,0000.65
2024-04-07 17:15:00,SystemResetWarning,0819.1,5.00,000.00,018.4,017.4,000.0,027.1,020.0,009.7,0000.0,0007.23,0001.18,0000.65
2024-04-07 17:16:00,SystemResetWarning,0819.2,5.00,000.00,018.4,017.4,000.0,027.1,020.0,009.6,0000.0,0006.72,0001.18,0000.64
2024-04-07 17:17:00,SystemResetWarning,0819.2,5.01,000.00,018.4,017.4,000.0,027.1,020.0,009.8,0000.0,0006.83,0001.22,0000.65
2024-04-07 17:18:00,SystemResetWarning,0819.2,5.00,000.00,018.4,017.4,000.0,027.0,020.0,010.0,0000.0,0007.16,0001.23,0000.65
2024-04-07 17:19:00,SystemResetWarning,0819.1,5.01,000.00,018.4,017.4,000.0,027.0,020.0,009.8,0000.0,0006.89,0001.18,0000.65
2024-04-07 17:20:00,SystemResetWarning,0819.0,5.00,000.00,018.4,017.4,000.0,027.0,020.0,009.6,0000.0,0005.70,0001.12,0000.64
2024-04-07 17:21:00,SystemResetWarning,0819.1,5.00,000.00,018.4,017.3,000.0,027.1,020.0,009.6,0000.0,0004.04,0001.13,0000.64
2024-04-07 17:22:00,SystemResetWarning,0819.1,4.99,000.00,018.4,017.4,000.0,027.0,020.0,009.9,0000.0,0003.11,0001.13,0000.64
2024-04-07 17:23:00,SystemResetWarning,0819.1,5.01,000.00,018.5,018.2,000.0,027.1,020.5,009.9,0000.0,0002.87,0001.13,0000.63
2024-04-07 17:24:00,SystemResetWarning,0819.1,5.01,000.00,018.8,019.4,000.0,027.2,021.2,009.6,0000.0,0002.90,0001.13,0000.64
2024-04-07 17:25:00,SystemResetWarning,0819.2,4.98,000.00,019.0,019.7,000.0,027.2,021.4,009.3,0000.0,0003.58,0001.14,0000.65
2024-04-07 17:26:00,SystemResetWarning,0819.2,4.99,000.00,019.0,019.4,000.0,027.2,021.1,009.2,0000.0,0003.71,0001.19,0000.66
2024-04-07 17:27:00,SystemResetWarning,0819.2,5.01,000.00,019.0,019.2,000.0,027.2,020.9,009.3,0000.0,0003.63,0001.18,0000.66
2024-04-07 17:28:00,SystemResetWarning,0819.3,5.00,000.00,019.0,019.0,000.0,027.2,020.8,009.5,0000.0,0003.88,0001.16,0000.66
2024-04-07 17:29:00,SystemResetWarning,0819.2,5.00,000.00,019.0,018.8,000.0,027.2,020.7,009.7,0000.0,0003.61,0001.10,0000.64
2024-04-07 17:30:00,SystemResetWarning,0819.3,5.00,000.00,018.9,018.6,000.0,027.2,020.6,009.5,0000.0,0003.60,0001.11,0000.64
2024-04-07 17:31:00,SystemResetWarning,0819.4,5.00,000.00,018.9,018.4,000.0,027.2,020.5,009.5,0000.0,0003.74,0001.16,0000.64
2024-04-07 17:32:00,SystemResetWarning,0819.3,5.00,000.00,018.9,018.3,000.0,027.2,020.4,009.6,0000.0,0003.82,0001.17,0000.64
2024-04-07 17:33:00,SystemResetWarning,0819.4,5.00,000.00,018.8,018.2,000.0,027.2,020.4,009.5,0000.0,0003.80,0001.16,0000.63
2024-04-07 17:34:00,SystemResetWarning,0819.4,5.01,000.00,018.8,018.1,000.0,027.2,020.3,009.4,0000.0,0003.80,0001.17,0000.63
2024-04-07 17:35:00,SystemResetWarning,0819.3,5.00,000.00,018.7,018.0,000.0,027.2,020.3,009.5,0000.0,0003.61,0001.11,0000.61
2024-04-07 17:36:00,SystemResetWarning,0819.2,5.00,000.00,018.7,018.0,000.0,027.2,020.2,009.6,0000.0,0002.82,0001.07,0000.60
2024-04-07 17:37:00,SystemResetWarning,0819.3,5.00,000.00,018.7,017.9,000.0,027.2,020.2,009.0,0000.0,0002.57,0001.02,0000.59
2024-04-07 17:38:00,SystemResetWarning,0819.4,5.00,000.00,018.6,017.8,000.0,027.1,020.1,009.5,0000.0,0002.51,0001.03,0000.60
2024-04-07 17:39:00,SystemResetWarning,0819.4,4.99,000.00,018.6,017.8,000.0,027.1,020.1,009.5,0000.0,0002.19,0001.02,0000.59
2024-04-07 17:40:00,SystemResetWarning,0819.4,4.99,000.00,018.5,017.7,000.0,027.1,020.0,009.6,0000.0,0002.10,0001.05,0000.60
2024-04-07 17:41:00,SystemResetWarning,0819.5,5.00,000.00,018.5,017.7,000.0,027.1,020.0,009.5,0000.0,0002.86,0001.04,0000.59
2024-04-07 17:42:00,SystemResetWarning,0819.5,5.00,000.00,018.5,017.7,000.0,027.1,020.0,009.6,0000.0,0003.23,0001.03,0000.60
2024-04-07 17:43:00,SystemResetWarning,0819.8,5.00,000.00,018.5,017.6,000.0,027.1,020.0,009.3,0000.0,0003.29,0001.02,0000.60
2024-04-07 17:44:00,SystemResetWarning,0819.6,5.00,000.00,018.4,017.6,000.0,027.0,020.0,009.5,0000.0,0003.34,0001.03,0000.60
2024-04-07 17:45:00,SystemResetWarning,0819.5,5.00,000.00,018.4,017.6,000.0,027.0,020.0,009.1,0000.0,0003.83,0001.01,0000.60
2024-04-07 17:46:00,SystemResetWarning,0819.5,5.00,000.00,018.4,017.6,000.0,027.0,020.0,009.1,0000.0,0003.98,0001.06,0000.61
2024-04-07 17:47:00,SystemResetWarning,0819.5,5.00,000.00,018.4,017.6,000.0,027.0,020.0,009.0,0000.0,0004.15,0001.05,0000.60
2024-04-07 17:48:00,SystemResetWarning,0819.5,5.00,000.00,018.4,017.6,000.0,027.0,020.0,008.9,0000.0,0004.45,0001.03,0000.60
2024-04-07 17:49:00,SystemResetWarning,0819.8,5.00,000.00,018.4,017.6,000.0,027.0,020.0,008.9,0000.0,0004.33,0000.98,0000.59
2024-04-07 17:50:00,SystemResetWarning,0819.6,5.00,000.00,018.4,017.6,000.0,027.0,020.0,009.0,0000.0,0004.37,0001.01,0000.59
2024-04-07 17:51:00,SystemResetWarning,0819.6,5.00,000.00,018.4,017.6,000.0,027.0,020.0,009.1,0000.0,0004.24,0001.00,0000.59
2024-04-07 17:52:00,SystemResetWarning,0819.7,5.00,000.00,018.4,017.5,000.0,027.0,020.0,009.3,0000.0,0003.53,0001.04,0000.58
2024-04-07 17:53:00,SystemResetWarning,0819.6,5.00,000.00,018.4,017.5,000.0,027.0,020.0,009.6,0000.0,0003.04,0001.04,0000.58
2024-04-07 17:54:00,SystemResetWarning,0819.4,5.00,000.00,018.3,017.5,000.0,027.0,020.0,009.4,0000.0,0003.25,0001.05,0000.57
2024-04-07 17:55:00,SystemResetWarning,0819.4,5.00,000.00,018.3,017.5,000.0,027.0,020.0,009.3,0000.0,0003.17,0001.03,0000.57
2024-04-07 17:56:00,SystemResetWarning,0819.5,5.00,000.00,018.3,017.5,000.0,027.0,020.0,009.2,0000.0,0002.78,0001.08,0000.58
2024-04-07 17:57:00,SystemResetWarning,0819.5,5.00,000.00,018.3,017.5,000.0,027.0,020.0,009.5,0000.0,0002.58,0001.05,0000.58
2024-04-07 17:58:00,SystemResetWarning,0819.6,5.00,000.00,018.3,017.5,000.0,027.0,020.0,009.0,0000.0,0002.46,0001.02,0000.57
2024-04-07 17:59:00,SystemResetWarning,0819.5,5.00,000.00,018.3,017.5,000.0,027.0,020.0,008.8,0000.0,0001.98,0001.04,0000.58
